Wind_Speed
38 37 34 33 36 36 36 36 35 35 37 38 37 35 34 36 35 34 33 33 33 33 33 33 32 32 31 31 30 30 30 29 29 29 29 29 29 29 30 30 30 31 32 32
38 36 33 36 37 37 36 36 35 35 37 39 37 35 33 35 36 35 34 34 34 34 33 33 33 33 32 31 31 31 30 30 30 30 30 30 30 30 31 31 31 32 33 33
36 33 34 36 36 35 35 35 35 36 37 39 39 34 30 33 35 34 34 34 35 34 34 34 33 33 32 32 32 31 31 31 30 30 31 31 31 32 32 32 33 33 34 34
37 35 35 36 35 34 34 34 36 36 37 38 39 37 28 31 33 33 34 34 34 35 35 34 34 34 33 33 32 32 32 31 31 31 31 32 32 32 33 33 34 35 35 36
37 35 36 35 33 34 34 35 36 37 38 38 36 39 30 29 31 32 34 34 34 35 35 34 34 33 32 32 32 32 32 32 32 32 32 32 33 33 34 34 35 36 36 37
38 37 36 35 34 35 35 36 37 38 38 38 34 37 33 28 30 31 33 33 34 34 34 33 32 32 32 32 32 32 32 32 32 32 33 33 34 34 35 35 36 37 37 38
38 36 35 34 34 35 36 36 37 38 38 37 34 35 33 29 28 30 31 32 32 32 32 31 31 31 32 32 32 32 33 33 33 33 34 35 35 36 36 37 37 38 39 40
37 36 34 34 33 34 35 36 37 38 38 36 35 34 30 28 27 28 29 30 30 31 30 30 30 31 32 32 32 33 33 33 34 34 35 36 36 36 37 38 38 39 40 41
36 36 34 34 33 34 35 36 36 38 39 38 36 33 29 27 27 28 28 28 29 30 29 29 30 31 31 32 32 33 33 34 35 35 36 36 37 37 38 39 39 40 41 42
36 36 35 35 35 35 35 35 36 37 38 38 36 32 29 26 27 27 28 29 30 30 30 30 30 31 31 31 32 33 34 35 35 36 36 37 38 39 39 40 41 42 43 44
36 36 35 35 35 34 35 35 35 36 38 37 36 32 29 27 27 27 28 29 30 30 30 30 30 31 32 32 33 34 34 35 36 37 38 39 39 40 41 42 43 44 45 46
35 36 36 35 35 35 36 35 35 36 36 36 37 33 29 29 28 29 29 30 30 30 31 31 31 31 32 32 33 34 35 36 37 38 39 40 41 41 43 44 45 46 47 48
36 37 36 35 34 33 34 34 34 35 37 37 37 32 28 27 27 29 30 30 30 30 31 31 32 32 32 33 34 35 36 37 39 40 40 41 42 43 44 46 47 47 48 49
36 37 35 33 31 31 31 31 33 35 37 36 34 30 26 27 28 30 31 31 31 31 31 32 32 32 33 34 35 36 37 39 40 41 42 43 44 44 45 46 47 48 49 50
36 35 33 32 32 32 32 33 33 34 34 34 30 29 26 27 30 31 32 32 31 31 31 32 33 34 34 35 36 38 39 40 41 42 43 44 45 45 46 48 49 50 51 52
36 35 34 33 32 33 33 33 33 32 32 31 31 29 27 29 30 31 31 32 32 32 33 33 34 34 35 36 37 38 40 41 42 43 44 45 46 47 48 49 50 51 52 53
36 35 35 34 33 35 35 31 31 31 30 31 31 28 29 31 31 31 32 33 33 34 35 35 35 35 35 36 38 39 41 41 42 44 45 46 47 48 49 50 51 52 53 54
38 37 36 36 35 37 31 29 30 31 30 31 31 30 30 31 32 32 33 34 34 34 35 35 35 36 37 38 39 40 41 42 43 44 45 47 48 49 50 51 52 53 54 55
38 37 37 37 37 35 32 29 29 30 30 30 31 31 32 33 33 33 33 34 34 34 35 35 36 37 37 38 39 40 41 42 44 45 46 47 48 49 51 52 53 55 56 57
39 38 37 37 37 35 29 28 29 31 30 28 31 32 33 34 34 32 33 34 35 35 35 36 37 37 38 39 40 41 42 43 45 46 47 48 49 51 52 54 55 56 57 58
38 38 37 35 35 33 29 28 29 31 29 29 31 32 32 33 33 34 34 35 35 35 36 37 38 38 39 40 41 42 43 44 46 47 48 49 51 52 54 55 56 58 59 60
37 36 35 35 36 31 29 30 30 30 31 31 31 31 32 33 34 35 35 35 36 36 37 38 39 39 40 40 42 43 44 45 47 48 49 51 52 54 55 57 58 60 61 62
38 36 35 35 34 32 32 31 31 31 32 32 32 32 32 33 34 34 35 36 36 37 38 38 38 39 40 42 43 44 45 46 48 49 51 52 54 55 57 58 60 61 63 65
38 38 38 36 34 33 33 32 32 32 33 33 33 33 33 33 34 35 35 36 36 37 38 38 39 40 42 43 44 45 47 48 49 50 52 54 55 56 58 60 61 63 65 67
39 38 38 37 35 35 34 34 34 34 34 34 33 34 34 34 35 35 35 36 36 37 38 39 40 42 43 44 45 46 48 49 50 52 53 55 56 58 59 61 63 65 67 70
39 38 37 37 36 36 35 35 35 35 35 35 35 35 35 35 35 36 36 37 38 38 39 40 42 43 44 45 46 48 49 50 51 53 54 56 58 59 61 63 65 67 70 72
Wind_Direction
247 248 250 252 253 253 254 255 256 258 260 262 263 264 265 266 268 270 271 272 274 274 274 275 274 274 275 275 275 275 275 275 275 276 278 278 279 281 283 285 286 287 288 289
246 249 249 250 251 253 254 255 257 257 260 263 263 264 265 266 267 268 270 271 272 273 273 273 274 274 274 274 274 274 274 274 274 276 277 278 280 281 283 285 286 288 289 290
246 246 246 248 250 253 255 257 257 258 260 264 266 264 264 266 267 267 268 269 270 271 272 272 273 273 273 273 273 272 272 273 274 276 277 278 280 281 283 285 287 288 289 290
243 243 245 248 251 254 256 258 259 260 261 263 268 268 260 265 267 267 267 268 269 270 271 272 272 272 272 272 271 271 271 272 273 275 277 278 280 282 283 285 287 289 289 290
243 244 246 249 252 254 256 257 259 261 263 264 267 271 265 263 265 265 266 267 268 269 270 271 271 271 271 270 270 270 271 272 273 274 277 279 281 282 284 286 288 289 291 291
241 242 245 248 250 253 255 257 259 261 264 266 267 270 271 266 264 264 265 267 268 269 270 270 269 269 269 269 269 269 270 271 273 275 277 279 282 284 286 287 289 291 292 293
242 243 245 248 250 252 255 258 260 262 264 268 269 269 272 270 267 266 266 267 268 269 269 269 268 268 267 267 268 268 270 271 273 275 278 280 283 285 287 289 291 292 293 293
242 243 246 248 250 253 255 257 259 264 266 268 268 269 271 272 269 267 266 266 267 267 267 266 267 267 267 267 268 269 270 272 274 277 280 282 284 286 288 290 291 292 294 295
242 243 244 247 247 249 252 256 260 263 266 268 269 271 271 272 269 267 266 266 266 266 265 264 265 265 266 267 268 269 271 274 276 278 281 283 286 288 290 291 293 294 295 296
240 242 242 243 245 247 251 254 257 261 266 269 270 272 275 272 268 266 265 265 265 266 265 264 264 264 266 267 269 271 273 275 277 280 282 285 287 289 291 292 294 295 296 296
239 242 242 243 245 248 251 253 257 260 264 268 271 272 274 274 270 267 265 264 264 264 264 265 264 264 266 269 270 272 274 276 278 281 284 287 289 290 292 293 294 295 296 297
238 240 242 242 244 246 248 251 255 259 264 267 270 271 273 274 271 268 265 264 263 264 265 265 266 268 270 271 273 274 276 278 280 283 285 287 289 291 292 293 294 295 296 297
235 238 241 243 245 247 250 254 257 260 263 266 269 273 275 273 269 266 264 263 263 264 266 267 269 271 272 273 274 276 278 280 282 284 286 288 290 292 293 294 295 296 297 297
234 239 243 247 249 250 252 254 256 259 261 265 269 271 269 269 267 265 265 265 266 268 269 270 271 272 273 274 276 277 279 281 284 286 287 289 291 293 294 295 296 297 297 298
236 240 243 244 247 248 250 252 254 257 262 265 267 266 265 265 265 266 267 269 270 269 270 271 271 272 274 276 277 279 281 283 285 287 289 290 292 293 294 295 296 297 297 298
238 240 242 244 247 249 250 251 254 257 261 264 266 267 266 265 266 267 269 271 271 271 272 273 274 275 275 277 279 281 283 284 286 287 289 290 292 293 294 295 296 297 298 299
238 240 242 245 248 251 250 253 256 259 261 264 266 268 265 266 269 269 269 271 273 273 274 275 276 276 277 279 281 283 284 285 287 288 289 291 292 293 294 295 296 297 298 299
235 239 242 245 247 250 254 253 256 259 260 263 265 265 267 268 269 270 271 273 273 274 275 276 277 277 279 281 283 284 285 287 288 289 290 291 292 293 295 296 297 298 299 300
235 238 242 245 248 253 253 255 256 258 260 263 265 266 267 268 269 272 274 274 275 275 277 278 278 279 281 283 285 286 287 288 289 290 291 292 293 294 295 297 298 298 299 300
234 238 242 246 250 254 255 255 257 260 262 264 265 265 266 268 271 273 274 275 276 277 278 279 280 281 283 284 285 286 287 288 289 290 292 293 294 295 296 297 298 299 300 301
236 239 243 247 251 254 257 259 259 261 266 264 263 264 266 269 272 274 276 277 278 279 279 280 281 283 284 285 286 287 288 289 291 292 293 294 295 296 297 298 299 300 301 301
237 240 244 248 251 256 259 262 262 264 264 265 266 267 269 271 273 276 277 278 279 279 280 281 283 283 285 286 287 289 290 291 292 293 294 295 297 298 299 299 300 300 301 302
236 240 245 249 253 256 258 261 263 265 266 267 269 270 271 273 275 277 278 278 279 280 282 284 285 285 287 288 289 290 292 293 294 295 296 297 298 298 299 300 300 301 302 302
237 240 245 248 251 255 257 259 262 264 266 268 270 271 272 274 276 278 279 280 280 282 283 285 286 287 288 290 291 292 293 294 295 296 297 298 298 299 300 301 302 302 303 303
237 241 245 249 251 254 256 259 261 264 266 268 270 272 275 276 278 279 280 281 282 283 285 286 287 289 290 291 292 293 294 295 296 298 298 299 300 300 301 302 303 303 304 304
238 241 245 248 250 253 255 258 262 265 267 269 271 274 276 278 279 281 282 283 284 285 287 288 289 291 292 293 294 295 296 297 298 299 299 300 301 301 302 303 303 304 305 305
Height
5782 5786 5790 5793 5793 5794 5796 5798 5800 5802 5801 5801 5803 5806 5808 5807 5808 5809 5809 5809 5809 5809 5809 5808 5808 5807 5807 5806 5806 5805 5804 5803 5801 5800 5799 5798 5797 5796 5794 5792 5791 5789 5787 5785
5775 5780 5784 5783 5784 5786 5789 5791 5793 5794 5793 5793 5795 5798 5801 5800 5801 5802 5802 5802 5802 5802 5801 5801 5801 5800 5800 5799 5799 5798 5797 5796 5795 5794 5793 5792 5791 5789 5788 5786 5784 5782 5781 5779
5768 5774 5774 5775 5777 5780 5782 5784 5785 5786 5786 5786 5787 5792 5794 5793 5793 5795 5795 5794 5794 5794 5794 5794 5794 5793 5793 5792 5792 5791 5790 5790 5789 5788 5787 5785 5784 5782 5781 5779 5778 5775 5773 5771
5759 5764 5766 5768 5771 5773 5775 5777 5777 5777 5778 5779 5780 5781 5790 5787 5786 5787 5787 5787 5787 5787 5787 5786 5787 5786 5786 5786 5785 5784 5784 5783 5782 5781 5780 5779 5777 5776 5774 5772 5770 5768 5766 5764
5753 5757 5759 5761 5765 5766 5768 5768 5769 5770 5770 5772 5773 5772 5781 5781 5780 5779 5779 5779 5779 5779 5779 5779 5779 5779 5779 5778 5778 5777 5777 5776 5775 5774 5773 5772 5771 5769 5767 5765 5763 5761 5758 5756
5745 5748 5751 5755 5757 5758 5759 5761 5762 5762 5762 5765 5768 5766 5769 5773 5772 5772 5772 5771 5771 5771 5771 5771 5771 5772 5771 5771 5771 5770 5770 5769 5768 5767 5766 5765 5763 5761 5759 5757 5755 5752 5750 5747
5737 5741 5744 5747 5750 5751 5753 5754 5754 5754 5755 5758 5760 5759 5762 5765 5765 5764 5764 5764 5764 5764 5764 5764 5764 5764 5764 5764 5764 5763 5763 5762 5761 5760 5759 5757 5756 5754 5752 5749 5747 5744 5741 5738
5730 5734 5738 5741 5743 5745 5746 5747 5748 5748 5748 5750 5751 5752 5757 5758 5757 5756 5756 5756 5756 5756 5757 5757 5757 5757 5757 5757 5756 5756 5755 5754 5753 5752 5751 5749 5748 5746 5743 5741 5738 5736 5732 5729
5723 5727 5731 5733 5735 5737 5738 5739 5741 5741 5740 5741 5743 5746 5750 5751 5750 5749 5749 5749 5749 5749 5750 5750 5750 5750 5750 5749 5749 5748 5748 5747 5746 5744 5743 5741 5739 5737 5735 5732 5729 5726 5723 5720
5715 5718 5722 5724 5726 5728 5731 5732 5733 5733 5733 5733 5736 5739 5742 5743 5743 5742 5742 5742 5742 5742 5743 5743 5743 5742 5742 5742 5742 5741 5740 5739 5738 5737 5735 5733 5731 5729 5726 5723 5720 5717 5713 5710
5707 5710 5713 5716 5719 5722 5724 5725 5726 5726 5727 5727 5728 5734 5735 5736 5736 5736 5735 5735 5735 5735 5735 5735 5735 5735 5735 5735 5734 5733 5732 5731 5730 5728 5727 5725 5722 5720 5717 5714 5710 5707 5703 5699
5698 5701 5704 5709 5712 5713 5715 5717 5719 5720 5721 5721 5721 5728 5728 5728 5728 5727 5727 5727 5727 5728 5728 5728 5728 5728 5728 5727 5726 5725 5724 5723 5722 5720 5718 5715 5713 5710 5707 5703 5700 5696 5692 5688
5690 5693 5696 5700 5705 5706 5708 5710 5712 5713 5713 5713 5714 5721 5721 5720 5719 5719 5719 5720 5720 5720 5720 5720 5720 5720 5720 5719 5718 5717 5716 5714 5713 5711 5708 5706 5703 5700 5696 5693 5689 5685 5681 5677
5682 5685 5690 5694 5697 5699 5701 5703 5704 5704 5704 5706 5708 5712 5713 5712 5711 5711 5711 5712 5712 5713 5713 5713 5713 5712 5711 5710 5710 5708 5707 5705 5703 5701 5698 5696 5693 5689 5686 5682 5678 5674 5669 5665
5674 5678 5682 5686 5688 5691 5693 5695 5695 5696 5698 5699 5702 5703 5705 5704 5703 5703 5703 5704 5704 5705 5705 5705 5704 5704 5703 5702 5701 5699 5698 5696 5693 5691 5688 5685 5682 5678 5674 5671 5666 5662 5657 5652
5667 5671 5675 5678 5680 5682 5684 5686 5688 5689 5691 5692 5693 5696 5697 5695 5695 5696 5696 5696 5696 5697 5696 5696 5696 5695 5694 5693 5692 5690 5688 5686 5683 5681 5678 5674 5671 5667 5663 5659 5654 5650 5645 5640
5659 5664 5667 5670 5672 5673 5675 5681 5681 5683 5684 5685 5685 5689 5688 5687 5688 5688 5688 5688 5688 5688 5688 5687 5687 5686 5685 5684 5682 5680 5678 5675 5673 5670 5666 5663 5659 5655 5651 5647 5642 5637 5632 5627
5651 5655 5659 5662 5664 5664 5673 5674 5675 5675 5677 5678 5678 5679 5680 5679 5679 5679 5679 5679 5679 5679 5678 5678 5677 5676 5675 5673 5672 5670 5667 5665 5662 5658 5655 5651 5648 5643 5639 5634 5629 5624 5619 5614
5644 5647 5650 5653 5655 5658 5663 5666 5667 5667 5669 5671 5670 5671 5671 5670 5670 5672 5671 5671 5670 5670 5669 5669 5668 5666 5665 5663 5661 5659 5656 5653 5650 5647 5643 5639 5635 5631 5626 5622 5616 5611 5606 5600
5636 5639 5643 5645 5647 5650 5657 5659 5659 5660 5661 5664 5662 5662 5662 5662 5663 5664 5663 5662 5661 5661 5660 5659 5658 5656 5655 5653 5651 5648 5645 5642 5639 5635 5631 5627 5623 5618 5614 5608 5603 5597 5591 5586
5628 5631 5635 5638 5639 5643 5648 5650 5651 5653 5655 5654 5653 5653 5653 5654 5655 5655 5654 5653 5652 5651 5650 5649 5648 5646 5644 5642 5640 5637 5634 5631 5627 5623 5619 5615 5610 5605 5600 5595 5589 5583 5577 5571
5620 5624 5627 5630 5632 5638 5641 5641 5643 5644 5644 5644 5645 5645 5646 5646 5646 5645 5645 5644 5643 5642 5641 5639 5638 5636 5634 5632 5629 5626 5623 5619 5615 5611 5607 5602 5597 5592 5586 5580 5574 5568 5561 5555
5612 5618 5621 5624 5628 5631 5632 5633 5634 5634 5635 5636 5636 5637 5637 5637 5636 5636 5635 5634 5633 5632 5631 5629 5627 5625 5623 5620 5618 5614 5611 5607 5603 5599 5594 5589 5583 5577 5571 5565 5559 5553 5545 5538
5605 5609 5612 5615 5619 5621 5623 5624 5625 5626 5626 5627 5628 5628 5628 5628 5627 5627 5626 5625 5624 5622 5621 5619 5617 5615 5612 5609 5606 5602 5598 5594 5590 5585 5580 5575 5569 5563 5557 5550 5544 5537 5529 5521
5597 5600 5603 5606 5610 5612 5614 5615 5616 5617 5618 5618 5619 5619 5619 5619 5618 5618 5617 5615 5614 5612 5610 5608 5606 5603 5600 5597 5593 5590 5586 5581 5577 5572 5566 5561 5555 5549 5542 5535 5528 5520 5512 5502
5588 5593 5596 5599 5602 5603 5605 5607 5608 5608 5609 5610 5610 5610 5610 5609 5609 5608 5607 5605 5604 5602 5600 5597 5595 5592 5588 5585 5581 5577 5573 5568 5563 5558 5552 5546 5540 5533 5526 5519 5513 5504 5495 5486